sat.trackr.live / text

‹ back to catalog

STARLINK-33952

NORAD 64046 · 2025-102AA

PAYLOAD ACTIVE UNKNOWN

§ Identity

Operator
Country
US
Launch date
2025-05-16
Launch site
AFWTR
Launch vehicle
Mass (kg)
RCS (m²)

Purposes: comms

External: N2YO · Heavens-Above · Gunter

§ Orbital elements

Epoch: 2026-09-20T13:03:09.906624Z

Period
94.14 min
Inclination
70.0012°
Eccentricity
0.0003620
Mean motion
15.29593010 rev/d
Perigee alt
474.5 km
Apogee alt
479.5 km
Semi-major
6,855.2 km
B*
5.8593e-4
RAAN
340.9934°
Arg perigee
268.7698°
Mean anomaly
91.3062°
Rev number
7,519

§ Raw data

STARLINK-339521 64046U 25102AA  26263.54386466  .00016760  00000+0  58593-3 0  99932 64046  70.0012 340.9934 0003620 268.7698  91.3062 15.29593010 75199

JSON: /api/v1/satellites/64046 · /tle

For live sub-satellite position, see the globe view (requires WebGL).

§ Visibility from observer

Set your observer location to see the next 7 days of passes ≥ 10°. The values pass through the URL so the page stays shareable.

No JS? Fill the form by hand. The geolocation button needs JavaScript.